QPF
0.02 0.03 0.03 0.03 0.02 0.04 0.04 0.03 0.04 0.06 0.05 0.04 0.01 0.00 0.00 0.00 0.00 0.00 0.00 0.00 0.00 0.00 0.00 0.00 0.00 0.00 0.00 0.00 0.00 0.00 0.00 0.00 0.00 0.00 0.00 0.00 0.00 0.00 0.00 0.00 0.00 0.00 0.00 0.00 0.00
0.01 0.04 0.03 0.03 0.02 0.04 0.08 0.05 0.03 0.05 0.06 0.05 0.02 0.00 0.00 0.00 0.00 0.00 0.00 0.00 0.00 0.00 0.00 0.00 0.00 0.00 0.00 0.00 0.00 0.00 0.00 0.00 0.00 0.00 0.00 0.00 0.00 0.00 0.00 0.00 0.00 0.00 0.00 0.00 0.00
0.01 0.03 0.04 0.02 0.03 0.04 0.10 0.13 0.07 0.06 0.05 0.05 0.03 0.01 0.00 0.00 0.00 0.00 0.00 0.00 0.00 0.00 0.00 0.00 0.01 0.00 0.00 0.00 0.00 0.00 0.00 0.00 0.00 0.00 0.00 0.00 0.00 0.00 0.00 0.00 0.00 0.00 0.00 0.00 0.00
0.01 0.01 0.02 0.02 0.04 0.05 0.09 0.18 0.12 0.12 0.07 0.06 0.04 0.01 0.00 0.00 0.00 0.00 0.00 0.00 0.00 0.00 0.00 0.00 0.01 0.00 0.00 0.00 0.00 0.01 0.00 0.00 0.00 0.00 0.00 0.00 0.00 0.00 0.00 0.00 0.00 0.00 0.00 0.00 0.00
0.02 0.03 0.04 0.02 0.03 0.07 0.09 0.20 0.19 0.15 0.07 0.07 0.04 0.01 0.00 0.00 0.00 0.00 0.00 0.00 0.00 0.00 0.00 0.00 0.00 0.01 0.00 0.00 0.00 0.01 0.01 0.00 0.00 0.00 0.00 0.00 0.00 0.00 0.00 0.00 0.00 0.00 0.00 0.00 0.00
0.01 0.03 0.06 0.06 0.05 0.06 0.09 0.14 0.19 0.21 0.08 0.07 0.05 0.01 0.00 0.00 0.00 0.00 0.00 0.00 0.00 0.00 0.00 0.00 0.00 0.02 0.01 0.00 0.00 0.00 0.00 0.00 0.00 0.00 0.00 0.00 0.00 0.00 0.00 0.00 0.00 0.00 0.00 0.00 0.00
0.03 0.06 0.07 0.07 0.11 0.07 0.13 0.19 0.10 0.15 0.11 0.06 0.07 0.02 0.01 0.00 0.00 0.00 0.00 0.00 0.00 0.00 0.00 0.00 0.00 0.01 0.00 0.00 0.00 0.00 0.00 0.00 0.00 0.00 0.00 0.00 0.00 0.00 0.00 0.00 0.00 0.00 0.00 0.00 0.00
0.06 0.09 0.09 0.08 0.06 0.11 0.15 0.36 0.22 0.09 0.08 0.06 0.08 0.05 0.01 0.00 0.00 0.00 0.00 0.00 0.00 0.00 0.00 0.00 0.00 0.01 0.00 0.00 0.00 0.00 0.00 0.00 0.00 0.00 0.00 0.00 0.00 0.00 0.00 0.00 0.00 0.00 0.00 0.00 0.00
0.06 0.16 0.11 0.07 0.05 0.06 0.11 0.31 0.37 0.17 0.08 0.08 0.18 0.13 0.01 0.00 0.00 0.00 0.00 0.00 0.00 0.00 0.02 0.00 0.02 0.02 0.01 0.00 0.00 0.00 0.00 0.00 0.00 0.00 0.00 0.00 0.00 0.00 0.00 0.00 0.00 0.00 0.00 0.00 0.00
0.01 0.07 0.19 0.13 0.02 0.05 0.13 0.22 0.35 0.27 0.18 0.21 0.28 0.25 0.02 0.00 0.00 0.00 0.00 0.00 0.00 0.01 0.09 0.08 0.06 0.04 0.01 0.00 0.00 0.00 0.00 0.00 0.00 0.00 0.00 0.00 0.00 0.00 0.00 0.00 0.00 0.00 0.00 0.00 0.00
0.03 0.02 0.04 0.07 0.02 0.13 0.30 0.41 0.65 0.58 0.28 0.45 0.62 0.27 0.01 0.00 0.00 0.00 0.00 0.00 0.00 0.03 0.08 0.14 0.06 0.04 0.01 0.00 0.00 0.00 0.00 0.00 0.00 0.00 0.00 0.00 0.00 0.00 0.00 0.00 0.00 0.00 0.00 0.00 0.00
0.01 0.04 0.02 0.02 0.04 0.20 0.57 0.75 0.60 0.38 0.25 0.14 0.15 0.06 0.01 0.00 0.00 0.00 0.00 0.00 0.01 0.04 0.03 0.10 0.08 0.01 0.00 0.00 0.00 0.00 0.01 0.01 0.00 0.00 0.00 0.00 0.00 0.00 0.00 0.00 0.00 0.00 0.00 0.00 0.00
0.00 0.02 0.01 0.02 0.10 0.32 0.71 0.60 0.16 0.04 0.13 0.22 0.15 0.11 0.03 0.00 0.00 0.00 0.00 0.00 0.00 0.01 0.02 0.02 0.05 0.03 0.01 0.00 0.00 0.00 0.00 0.00 0.00 0.00 0.00 0.00 0.00 0.00 0.00 0.00 0.00 0.00 0.00 0.00 0.00
0.00 0.00 0.00 0.05 0.21 0.34 0.73 0.34 0.09 0.02 0.13 0.26 0.42 0.21 0.07 0.00 0.00 0.00 0.00 0.00 0.00 0.00 0.00 0.01 0.00 0.02 0.01 0.00 0.00 0.00 0.00 0.00 0.00 0.00 0.00 0.00 0.00 0.00 0.00 0.00 0.00 0.00 0.00 0.00 0.00
0.00 0.00 0.00 0.06 0.22 0.35 0.55 0.38 0.15 0.03 0.28 0.23 0.31 0.31 0.14 0.03 0.00 0.00 0.00 0.00 0.00 0.00 0.00 0.00 0.00 0.01 0.02 0.00 0.00 0.00 0.00 0.00 0.00 0.00 0.00 0.00 0.00 0.00 0.00 0.00 0.00 0.00 0.00 0.00 0.00
0.00 0.01 0.01 0.06 0.26 0.52 0.58 0.30 0.29 0.19 0.42 0.29 0.22 0.27 0.29 0.09 0.00 0.00 0.00 0.00 0.00 0.00 0.00 0.00 0.00 0.00 0.00 0.00 0.00 0.00 0.00 0.00 0.00 0.00 0.00 0.00 0.00 0.00 0.00 0.00 0.00 0.00 0.00 0.00 0.00
0.01 0.01 0.01 0.05 0.26 0.56 1.01 0.49 0.59 0.54 0.31 0.21 0.25 0.29 0.31 0.16 0.02 0.00 0.00 0.00 0.00 0.00 0.00 0.00 0.00 0.00 0.00 0.00 0.00 0.00 0.00 0.01 0.01 0.00 0.00 0.00 0.00 0.00 0.00 0.00 0.00 0.00 0.00 0.00 0.00
0.02 0.03 0.03 0.04 0.31 0.65 0.99 1.10 0.74 0.44 0.19 0.09 0.12 0.23 0.30 0.08 0.02 0.03 0.00 0.00 0.00 0.00 0.00 0.00 0.00 0.00 0.00 0.00 0.00 0.00 0.00 0.00 0.00 0.00 0.00 0.00 0.00 0.00 0.00 0.00 0.00 0.00 0.00 0.00 0.00
0.03 0.03 0.04 0.05 0.34 0.70 0.86 1.02 0.55 0.20 0.07 0.04 0.11 0.21 0.35 0.10 0.05 0.07 0.02 0.00 0.00 0.00 0.00 0.00 0.00 0.00 0.00 0.00 0.00 0.00 0.00 0.00 0.00 0.00 0.00 0.00 0.00 0.00 0.00 0.00 0.00 0.00 0.00 0.00 0.00
0.02 0.04 0.05 0.08 0.30 0.65 0.70 0.62 0.32 0.02 0.01 0.01 0.16 0.19 0.31 0.23 0.03 0.02 0.01 0.00 0.00 0.00 0.00 0.00 0.00 0.00 0.00 0.00 0.00 0.00 0.00 0.00 0.00 0.00 0.00 0.00 0.00 0.00 0.00 0.00 0.00 0.00 0.00 0.00 0.00
0.03 0.03 0.07 0.06 0.18 0.56 0.45 0.35 0.21 0.01 0.00 0.00 0.01 0.05 0.06 0.05 0.00 0.00 0.00 0.00 0.00 0.00 0.00 0.00 0.00 0.00 0.00 0.00 0.00 0.00 0.00 0.00 0.00 0.00 0.00 0.00 0.00 0.00 0.00 0.00 0.00 0.00 0.00 0.00 0.00
0.03 0.02 0.09 0.03 0.16 0.33 0.28 0.25 0.12 0.01 0.00 0.00 0.00 0.00 0.00 0.00 0.00 0.00 0.00 0.00 0.00 0.00 0.00 0.00 0.00 0.00 0.00 0.00 0.00 0.00 0.00 0.00 0.00 0.00 0.00 0.00 0.00 0.00 0.00 0.00 0.00 0.00 0.00 0.00 0.00
0.01 0.03 0.10 0.03 0.13 0.19 0.22 0.23 0.10 0.01 0.00 0.00 0.00 0.00 0.00 0.00 0.00 0.00 0.00 0.00 0.00 0.00 0.00 0.00 0.00 0.00 0.01 0.00 0.00 0.00 0.00 0.00 0.00 0.00 0.00 0.00 0.00 0.00 0.00 0.00 0.00 0.00 0.00 0.00 0.00
0.00 0.03 0.15 0.11 0.05 0.11 0.22 0.24 0.13 0.02 0.00 0.00 0.00 0.00 0.00 0.00 0.00 0.00 0.00 0.00 0.00 0.00 0.00 0.00 0.00 0.00 0.00 0.00 0.00 0.00 0.00 0.00 0.00 0.00 0.00 0.00 0.00 0.00 0.00 0.00 0.00 0.00 0.00 0.00 0.00
0.00 0.00 0.02 0.02 0.02 0.05 0.23 0.22 0.10 0.11 0.03 0.00 0.00 0.00 0.00 0.00 0.00 0.00 0.00 0.00 0.00 0.00 0.00 0.00 0.01 0.00 0.00 0.00 0.00 0.00 0.00 0.00 0.00 0.00 0.00 0.00 0.00 0.00 0.00 0.00 0.00 0.00 0.00 0.00 0.00
0.00 0.00 0.00 0.02 0.02 0.02 0.16 0.24 0.14 0.04 0.02 0.00 0.00 0.00 0.00 0.00 0.00 0.00 0.00 0.00 0.00 0.00 0.00 0.00 0.00 0.00 0.00 0.00 0.00 0.00 0.00 0.00 0.00 0.00 0.00 0.00 0.00 0.00 0.00 0.00 0.00 0.00 0.00 0.00 0.00
0.00 0.00 0.00 0.02 0.03 0.01 0.07 0.14 0.11 0.01 0.00 0.00 0.00 0.00 0.00 0.00 0.00 0.00 0.00 0.00 0.00 0.00 0.00 0.00 0.00 0.00 0.00 0.00 0.00 0.00 0.00 0.00 0.00 0.00 0.00 0.00 0.00 0.00 0.00 0.00 0.00 0.00 0.00 0.00 0.00
MSLP
1009.15 1009.53 1009.86 1010.38 1010.37 1011.22 1011.72 1011.88 1012.26 1012.66 1012.23 1012.61 1013.11 1013.59 1014.07 1014.82 1015.32 1015.67 1015.05 1014.44 1014.71 1014.96 1015.43 1015.04 1015.68 1015.67 1015.31 1015.07 1014.27 1013.53 1012.50 1011.26 1011.10 1010.94 1010.82 1011.68 1011.97 1012.53 1012.88 1013.22 1013.71 1014.44 1014.76 1015.55 1017.74
1008.79 1009.07 1009.18 1009.46 1010.22 1010.60 1010.69 1011.07 1011.51 1012.02 1011.81 1012.14 1012.64 1013.31 1014.06 1014.86 1014.83 1014.43 1014.16 1014.30 1014.64 1014.86 1014.92 1014.68 1014.93 1015.41 1015.53 1015.41 1014.74 1013.85 1012.81 1011.83 1011.70 1011.49 1011.46 1011.89 1012.04 1012.75 1012.94 1013.11 1013.71 1014.74 1015.65 1016.63 1017.97
1007.97 1008.47 1008.68 1008.83 1009.33 1009.60 1009.86 1010.13 1010.51 1011.90 1011.33 1011.62 1012.15 1012.89 1013.77 1014.47 1014.34 1012.88 1013.54 1014.21 1014.50 1014.59 1014.32 1014.54 1014.66 1015.00 1015.13 1015.72 1015.59 1014.68 1013.29 1012.84 1012.96 1013.03 1012.70 1012.41 1012.43 1012.67 1012.78 1012.70 1012.62 1013.82 1015.41 1017.20 1017.93
1006.97 1007.23 1007.75 1008.12 1008.54 1009.03 1009.57 1009.77 1010.23 1010.93 1010.96 1011.03 1011.81 1012.48 1013.50 1013.87 1012.52 1011.32 1012.46 1013.70 1014.46 1014.56 1014.35 1014.30 1014.86 1014.97 1015.08 1015.17 1015.60 1015.45 1015.07 1014.15 1014.20 1014.20 1013.72 1013.01 1012.63 1012.73 1012.69 1012.47 1012.66 1012.86 1014.94 1016.67 1017.53
1006.38 1006.43 1006.95 1007.28 1007.60 1008.22 1008.87 1008.92 1009.63 1010.22 1010.06 1010.52 1011.40 1012.08 1013.22 1012.90 1010.93 1011.38 1011.98 1013.04 1013.97 1014.17 1013.94 1013.94 1014.43 1014.86 1014.84 1014.68 1015.36 1015.40 1015.50 1015.16 1015.01 1014.69 1014.15 1013.90 1013.24 1012.74 1012.39 1012.50 1013.25 1013.24 1015.19 1016.26 1016.98
1005.70 1005.59 1005.59 1005.99 1006.75 1007.69 1007.83 1008.46 1008.47 1009.34 1009.43 1010.15 1010.80 1011.82 1012.07 1011.47 1010.99 1011.21 1011.96 1012.97 1013.21 1013.76 1013.68 1013.82 1013.98 1014.62 1014.68 1014.75 1014.82 1014.91 1015.29 1015.48 1015.33 1015.21 1014.71 1014.20 1013.40 1013.40 1012.16 1012.44 1013.24 1013.60 1014.82 1015.77 1016.43
1004.86 1004.88 1004.92 1005.21 1006.27 1006.62 1007.19 1007.61 1007.99 1008.97 1009.06 1009.53 1010.25 1011.35 1011.15 1010.27 1010.54 1011.39 1011.76 1012.55 1013.12 1013.46 1013.66 1013.88 1014.30 1014.80 1014.57 1014.85 1014.92 1014.83 1015.25 1015.40 1015.43 1015.43 1015.20 1014.54 1013.68 1012.97 1012.36 1012.32 1013.03 1013.43 1014.10 1015.05 1015.76
1004.06 1004.37 1004.88 1004.95 1005.31 1005.76 1005.82 1006.06 1007.27 1007.24 1007.87 1009.00 1010.09 1010.87 1010.17 1010.00 1010.30 1011.11 1011.72 1012.41 1013.56 1014.13 1014.35 1014.98 1014.83 1015.13 1015.05 1014.52 1014.72 1014.75 1014.99 1014.89 1014.78 1015.04 1015.06 1014.55 1013.16 1012.14 1012.29 1012.73 1012.51 1012.96 1013.41 1014.34 1014.98
1003.79 1003.87 1004.36 1004.33 1004.70 1005.23 1005.74 1006.13 1006.01 1006.67 1007.30 1008.69 1010.23 1010.58 1009.85 1010.27 1010.19 1010.77 1011.20 1012.25 1013.59 1014.66 1015.16 1015.29 1015.44 1015.91 1015.44 1014.38 1014.56 1014.19 1014.16 1014.46 1014.30 1014.69 1014.86 1014.44 1013.41 1012.50 1012.79 1012.68 1012.28 1012.27 1012.76 1013.61 1014.26
1003.49 1003.43 1003.97 1004.08 1004.10 1004.73 1005.24 1005.64 1005.63 1006.04 1007.01 1008.54 1009.31 1010.77 1010.36 1009.13 1010.13 1010.64 1011.34 1012.28 1013.32 1014.71 1015.88 1016.05 1015.91 1015.91 1015.12 1013.61 1012.58 1013.30 1013.49 1013.14 1013.16 1014.16 1014.43 1014.01 1013.17 1012.46 1012.40 1012.68 1012.31 1011.88 1012.15 1012.83 1013.45
1002.93 1003.16 1003.05 1003.57 1003.62 1004.06 1004.64 1005.28 1005.72 1004.02 1005.23 1005.07 1006.32 1007.09 1008.04 1008.72 1010.11 1010.74 1011.14 1012.49 1013.86 1014.85 1015.22 1015.89 1015.61 1014.41 1013.55 1012.87 1012.04 1012.26 1012.52 1012.61 1013.09 1013.90 1013.96 1013.34 1012.76 1012.26 1011.91 1011.99 1012.02 1011.99 1011.71 1012.13 1012.63
1002.35 1002.53 1002.75 1003.14 1003.55 1003.94 1003.98 1002.79 1002.24 1001.60 1004.15 1006.08 1006.79 1007.62 1007.55 1007.68 1009.20 1010.16 1011.20 1011.85 1013.25 1014.08 1015.12 1015.80 1014.56 1013.64 1013.44 1012.49 1012.13 1012.18 1012.49 1012.76 1013.13 1014.12 1014.24 1013.13 1012.08 1011.86 1011.33 1010.89 1011.09 1011.41 1011.45 1011.74 1012.25
1002.12 1002.57 1002.52 1002.96 1003.17 1003.07 1003.02 1002.02 1001.78 1002.57 1004.34 1006.66 1006.35 1007.45 1007.35 1007.14 1007.93 1009.28 1010.17 1010.36 1011.72 1013.19 1013.70 1013.68 1013.06 1013.44 1012.72 1012.49 1012.34 1012.68 1012.72 1013.11 1013.64 1014.38 1014.37 1013.64 1011.58 1011.00 1010.45 1010.46 1010.53 1010.82 1011.15 1011.44 1011.56
1001.62 1001.41 1001.81 1002.43 1003.48 1002.46 1002.37 1001.30 1001.32 1001.71 1003.71 1005.49 1006.60 1008.02 1007.91 1007.05 1008.42 1009.20 1009.89 1009.89 1010.55 1011.65 1013.04 1013.33 1013.23 1012.96 1012.70 1012.56 1012.67 1013.49 1013.85 1013.99 1014.55 1015.11 1014.36 1013.70 1011.10 1008.78 1008.44 1008.71 1009.21 1009.56 1010.06 1010.64 1011.14
1000.89 1001.35 1001.97 1001.66 1002.31 1002.08 1001.47 1000.50 1001.29 1001.39 1003.29 1006.38 1007.65 1008.40 1007.54 1007.02 1006.72 1009.10 1009.50 1010.36 1010.23 1010.35 1011.80 1012.82 1012.57 1012.76 1013.09 1012.67 1013.10 1013.89 1014.70 1015.36 1016.02 1015.91 1015.56 1014.04 1013.19 1008.74 1008.16 1007.99 1007.92 1008.31 1008.85 1009.06 1009.64
1000.96 1001.17 1001.57 1001.87 1001.95 1001.83 1001.26 1000.00 1001.70 1002.08 1003.01 1005.70 1006.65 1007.73 1007.78 1007.20 1007.10 1009.21 1010.34 1010.73 1010.73 1011.09 1011.74 1011.95 1012.55 1012.82 1012.84 1013.63 1013.95 1014.89 1015.91 1016.65 1016.92 1016.87 1015.96 1013.99 1012.92 1008.98 1007.94 1007.47 1007.67 1007.68 1007.83 1008.36 1008.77
1000.74 1000.75 1001.11 1001.09 1001.43 1001.61 1001.40 999.97 1000.20 1000.00 1003.56 1005.35 1005.61 1006.00 1006.79 1007.14 1007.13 1007.74 1009.29 1010.12 1009.78 1010.49 1011.19 1012.43 1012.67 1012.83 1012.89 1013.98 1015.05 1015.23 1015.79 1017.03 1017.55 1017.07 1014.68 1013.60 1012.25 1009.61 1007.88 1007.62 1007.67 1007.42 1007.43 1007.77 1008.24
1000.77 1000.98 1001.17 1001.71 1001.74 1001.84 1002.48 1000.05 998.74 999.24 1002.05 1003.53 1004.42 1006.22 1006.65 1006.85 1007.32 1007.35 1008.52 1009.44 1009.31 1008.92 1010.00 1010.70 1012.98 1012.56 1012.73 1012.61 1013.92 1015.45 1015.13 1014.87 1015.46 1015.32 1014.17 1013.90 1011.35 1008.98 1008.40 1008.18 1007.97 1007.71 1007.84 1007.67 1007.94
1000.51 1000.94 1001.30 1001.42 1002.02 1001.98 1003.40 1000.54 998.20 998.73 1000.24 1001.86 1004.64 1005.08 1005.85 1005.77 1005.92 1006.55 1007.42 1007.42 1007.85 1007.69 1008.01 1009.39 1011.25 1012.47 1012.72 1013.18 1013.64 1015.28 1015.43 1015.23 1015.16 1015.79 1014.86 1012.38 1010.47 1009.24 1008.27 1007.79 1007.92 1007.68 1008.16 1008.37 1008.50
1000.41 1001.02 1001.36 1001.79 1001.63 1002.15 1002.12 1000.28 998.61 997.58 998.86 1000.15 1000.84 1002.39 1004.27 1004.77 1004.58 1005.42 1006.62 1006.70 1007.02 1007.48 1007.59 1008.55 1011.31 1012.88 1013.64 1013.85 1014.28 1013.63 1014.74 1015.35 1015.03 1014.64 1013.39 1010.77 1009.96 1008.53 1007.84 1007.35 1007.33 1007.43 1007.78 1008.12 1008.43
1000.42 1000.84 1001.32 1001.23 1001.55 1002.75 1001.54 1000.17 998.60 997.27 997.12 997.76 998.75 1001.02 1002.51 1002.32 1002.32 1003.50 1003.74 1004.70 1005.73 1006.83 1007.50 1007.98 1009.53 1013.29 1013.97 1013.49 1013.58 1014.24 1013.97 1013.87 1013.60 1013.66 1012.38 1010.72 1008.73 1007.77 1007.66 1007.64 1007.30 1007.29 1007.81 1008.24 1008.61
1000.08 1000.59 1001.43 1001.05 1002.01 1001.99 1001.10 999.76 998.70 996.99 997.08 996.10 997.66 998.43 999.21 1000.97 1001.97 1002.55 1003.16 1002.90 1004.93 1006.42 1007.05 1007.99 1009.25 1011.89 1012.96 1013.38 1013.21 1013.36 1013.39 1013.34 1012.96 1013.10 1012.20 1011.15 1008.62 1007.65 1007.54 1007.39 1007.40 1007.49 1007.78 1008.33 1008.99
999.89 1000.74 1000.90 1001.01 1002.20 1001.76 1000.60 999.41 998.47 996.88 996.43 996.27 996.75 997.50 998.53 999.84 1001.42 1002.20 1002.87 1003.39 1004.48 1005.74 1005.60 1007.15 1009.19 1011.58 1013.66 1013.72 1013.14 1012.45 1012.70 1012.88 1012.63 1012.81 1012.06 1011.27 1007.58 1006.85 1006.92 1007.12 1007.36 1007.51 1007.74 1008.08 1008.76
999.73 1000.39 1001.48 1001.83 1001.81 1000.85 1000.03 999.29 998.14 997.16 995.97 995.72 995.87 996.63 997.63 999.57 1000.28 1001.67 1002.61 1003.81 1004.55 1005.32 1005.96 1006.69 1008.30 1008.84 1009.35 1009.32 1010.97 1012.15 1012.19 1012.44 1012.64 1012.39 1010.53 1009.72 1006.53 1006.90 1007.03 1006.93 1007.05 1007.48 1007.75 1007.99 1008.36
1000.19 1000.97 1001.59 1001.41 1000.76 1000.28 1000.18 999.27 997.99 997.27 996.68 995.57 995.87 995.94 995.99 999.03 1000.95 1001.72 1003.11 1004.39 1005.21 1005.48 1006.16 1006.40 1007.88 1008.70 1009.11 1009.27 1009.94 1010.27 1010.65 1011.51 1011.68 1009.75 1009.91 1007.21 1006.79 1006.80 1006.43 1006.49 1006.62 1007.10 1007.57 1007.90 1008.31
1000.28 1000.77 1000.75 1000.64 1000.35 1000.69 1000.35 999.16 998.24 997.83 996.67 995.46 994.76 995.59 996.28 997.78 998.73 999.96 1000.92 1002.44 1003.38 1005.65 1006.21 1006.53 1007.65 1009.01 1009.81 1009.86 1009.79 1009.86 1010.24 1010.49 1009.80 1008.89 1009.67 1007.51 1006.58 1006.81 1006.64 1006.57 1006.78 1007.10 1007.29 1007.54 1008.00
1000.40 1000.31 1000.39 1000.77 1000.87 1000.34 999.73 999.27 998.80 998.27 997.35 996.09 995.77 996.02 996.63 997.26 998.43 1000.30 1001.53 1002.65 1003.58 1004.77 1005.70 1006.91 1008.12 1009.35 1010.32 1010.24 1010.34 1010.27 1008.20 1008.26 1008.72 1008.66 1008.04 1007.58 1004.56 1007.08 1006.44 1006.59 1007.01 1007.25 1007.41 1007.55 1007.88
Thickness
5507 5510 5515 5521 5533 5541 5549 5561 5571 5583 5596 5603 5608 5615 5620 5620 5626 5630 5637 5656 5659 5662 5663 5672 5669 5670 5675 5676 5690 5698 5688 5694 5700 5704 5713 5720 5714 5720 5725 5717 5719 5718 5719 5719 5704
5492 5496 5503 5511 5516 5530 5547 5556 5565 5574 5589 5600 5604 5607 5611 5612 5620 5628 5648 5652 5655 5657 5663 5666 5666 5666 5660 5663 5675 5684 5686 5696 5710 5714 5712 5715 5717 5711 5714 5714 5712 5711 5714 5710 5701
5484 5485 5488 5501 5508 5523 5540 5552 5563 5566 5582 5592 5600 5602 5605 5607 5610 5634 5644 5644 5651 5654 5662 5665 5666 5663 5660 5655 5659 5674 5686 5698 5696 5701 5706 5709 5710 5716 5710 5707 5723 5715 5711 5699 5697
5480 5481 5483 5489 5502 5514 5528 5546 5555 5563 5572 5587 5593 5599 5597 5601 5605 5646 5646 5642 5644 5648 5654 5657 5654 5653 5657 5659 5661 5656 5671 5686 5685 5687 5693 5699 5713 5704 5709 5716 5727 5733 5717 5703 5697
5469 5474 5477 5483 5498 5509 5520 5540 5550 5560 5571 5580 5586 5593 5589 5593 5622 5643 5643 5641 5640 5646 5650 5655 5650 5651 5654 5667 5661 5658 5660 5669 5675 5682 5689 5693 5697 5703 5708 5720 5719 5727 5710 5703 5701
5462 5469 5480 5484 5493 5500 5521 5534 5551 5556 5567 5573 5582 5584 5591 5593 5625 5635 5634 5635 5642 5643 5648 5653 5654 5657 5657 5660 5660 5663 5662 5663 5668 5671 5680 5685 5695 5695 5711 5719 5713 5716 5708 5704 5702
5458 5464 5476 5484 5487 5501 5517 5531 5546 5549 5559 5567 5578 5581 5591 5604 5617 5621 5628 5631 5635 5640 5641 5650 5654 5648 5658 5650 5660 5664 5654 5660 5662 5663 5668 5680 5682 5690 5709 5714 5707 5710 5711 5707 5705
5455 5462 5467 5476 5489 5500 5519 5538 5546 5558 5563 5564 5570 5573 5583 5600 5609 5613 5620 5621 5624 5628 5632 5634 5642 5640 5646 5659 5657 5652 5653 5644 5667 5666 5667 5672 5674 5701 5708 5701 5705 5708 5710 5707 5707
5451 5461 5465 5475 5484 5495 5509 5531 5549 5554 5560 5557 5551 5557 5572 5590 5602 5610 5617 5614 5615 5615 5619 5625 5629 5625 5632 5644 5640 5644 5634 5644 5658 5665 5661 5667 5668 5691 5694 5696 5702 5709 5709 5706 5706
5447 5459 5461 5473 5484 5497 5513 5527 5548 5554 5552 5548 5549 5542 5553 5590 5597 5602 5608 5609 5607 5605 5604 5609 5613 5615 5625 5641 5636 5629 5645 5664 5666 5662 5661 5663 5669 5686 5692 5688 5695 5707 5711 5707 5706
5445 5448 5463 5467 5477 5496 5506 5516 5523 5548 5543 5554 5552 5572 5578 5588 5584 5590 5600 5596 5593 5592 5597 5596 5607 5618 5632 5650 5663 5661 5659 5660 5663 5659 5656 5664 5669 5677 5691 5690 5691 5697 5708 5708 5708
5442 5446 5456 5464 5473 5483 5499 5528 5549 5567 5549 5543 5559 5563 5577 5591 5577 5582 5590 5590 5585 5588 5587 5590 5606 5629 5637 5651 5651 5655 5651 5654 5659 5650 5648 5664 5672 5677 5688 5699 5700 5698 5702 5705 5705
5440 5442 5452 5457 5466 5481 5500 5532 5550 5552 5540 5531 5553 5556 5565 5587 5581 5582 5591 5600 5592 5583 5591 5605 5625 5616 5633 5639 5639 5642 5644 5647 5642 5642 5643 5649 5664 5673 5690 5694 5700 5701 5702 5702 5705
5436 5446 5452 5455 5462 5485 5501 5531 5548 5555 5538 5532 5535 5534 5548 5572 5561 5578 5583 5592 5593 5589 5589 5598 5609 5613 5622 5628 5637 5618 5631 5638 5632 5629 5633 5647 5656 5697 5706 5703 5701 5704 5704 5701 5702
5433 5440 5445 5461 5471 5489 5514 5535 5545 5546 5538 5511 5515 5524 5551 5561 5578 5558 5575 5577 5586 5600 5597 5588 5599 5606 5606 5618 5630 5619 5623 5619 5615 5614 5611 5636 5625 5688 5703 5698 5707 5710 5707 5713 5710
5427 5433 5440 5454 5470 5489 5510 5536 5529 5528 5542 5498 5512 5518 5536 5549 5564 5552 5550 5561 5579 5582 5585 5594 5606 5606 5611 5610 5612 5609 5604 5600 5600 5599 5588 5628 5629 5673 5692 5700 5704 5712 5715 5712 5711
5421 5431 5439 5456 5473 5483 5494 5524 5523 5540 5490 5489 5505 5529 5543 5538 5548 5556 5553 5550 5560 5556 5567 5572 5583 5595 5604 5590 5589 5595 5599 5576 5574 5576 5604 5622 5635 5657 5698 5705 5703 5707 5712 5714 5713
5414 5422 5432 5442 5458 5469 5468 5508 5533 5518 5510 5502 5519 5524 5522 5541 5545 5552 5546 5549 5570 5588 5579 5572 5555 5581 5594 5601 5588 5583 5601 5605 5593 5602 5625 5601 5624 5659 5688 5690 5698 5702 5703 5710 5710
5409 5414 5420 5436 5442 5453 5443 5493 5530 5515 5517 5519 5507 5519 5513 5537 5546 5549 5557 5569 5576 5588 5589 5581 5573 5581 5590 5590 5594 5572 5575 5599 5589 5564 5590 5625 5645 5664 5674 5685 5684 5690 5690 5690 5695
5405 5406 5413 5418 5432 5439 5447 5488 5511 5542 5537 5532 5539 5535 5520 5514 5548 5560 5551 5571 5575 5584 5596 5589 5555 5565 5565 5574 5576 5591 5589 5573 5582 5576 5588 5632 5630 5646 5665 5677 5685 5684 5686 5689 5691
5397 5399 5401 5415 5426 5420 5460 5480 5493 5537 5548 5553 5555 5534 5538 5551 5578 5572 5577 5584 5582 5577 5584 5590 5574 5545 5550 5561 5568 5568 5577 5584 5596 5589 5593 5609 5641 5665 5663 5663 5672 5680 5676 5678 5680
5395 5396 5394 5411 5416 5421 5456 5469 5491 5533 5544 5566 5566 5571 5571 5569 5567 5573 5568 5593 5583 5573 5568 5570 5567 5547 5552 5559 5573 5574 5573 5581 5581 5576 5597 5595 5625 5656 5657 5658 5660 5665 5668 5668 5664
5390 5386 5394 5405 5417 5434 5445 5469 5493 5528 5540 5551 5557 5567 5575 5568 5559 5576 5573 5581 5580 5572 5578 5572 5553 5533 5522 5542 5559 5569 5574 5578 5584 5573 5573 5577 5632 5661 5655 5651 5652 5652 5656 5660 5656
5389 5395 5387 5399 5411 5432 5450 5468 5490 5524 5546 5557 5565 5569 5570 5563 5568 5563 5562 5563 5573 5574 5565 5571 5562 5566 5568 5585 5575 5557 5566 5569 5569 5560 5593 5595 5647 5639 5642 5644 5644 5643 5643 5647 5648
5387 5392 5390 5410 5424 5437 5439 5466 5494 5500 5515 5547 5550 5566 5578 5551 5546 5549 5547 5544 5555 5560 5561 5570 5551 5569 5581 5582 5575 5570 5566 5560 5559 5595 5581 5631 5625 5631 5639 5641 5640 5639 5636 5634 5633
5385 5386 5389 5401 5418 5430 5433 5460 5480 5488 5518 5543 5564 5568 5573 5561 5572 5571 5572 5565 5563 5553 5556 5567 5547 5559 5542 5560 5568 5563 5563 5563 5575 5593 5581 5615 5620 5629 5636 5636 5634 5631 5628 5627 5628
5378 5384 5394 5401 5414 5433 5444 5453 5473 5500 5517 5545 5558 5563 5567 5573 5569 5567 5566 5559 5560 5554 5557 5551 5537 5536 5538 5545 5541 5530 5573 5578 5580 5585 5594 5590 5641 5618 5620 5619 5617 5613 5618 5622 5623